Change the Weather History Date:

Friday, November 9, 2012

  Actual Average Record
Temperature  
Mean Temperature 73 °F -  
Max Temperature 78 °F 78 °F 84 °F (2005)
Min Temperature 68 °F 64 °F 62 °F (2006)
Cooling Degree Days 8    
Growing Degree Days 23 (Base 50)    
Moisture  
Dew Point 63 °F    
Average Humidity 72    
Maximum Humidity 78    
Minimum Humidity 58    
Precipitation  
Precipitation 0.01 in 0.14 in - ()
Sea Level Pressure  
Sea Level Pressure 29.92 in    
Wind  
Wind Speed 9 mph ()    
Max Wind Speed 17 mph    
Max Gust Speed 21 mph    
Visibility 7.3 miles    
Events Rain    
Averages and records for this station are not official NWS values.
T = Trace of Precipitation, MM = Missing Value Source: Averaged Metar Reports

Daily Weather History Graph

Daily Weather History Graph

Search for Another Location

Airport or City:

Trip Planner

Search our weather history database for the weather conditions in past years. The results will help you decide how hot, cold, wet, or windy it might be!

Date:

Astronomy

Nov. 09, 2012 Rise Set
Actual Time 5:29 AM CST 5:11 PM CST
Civil Twilight 5:07 AM CST 5:33 PM CST
Nautical Twilight 4:42 AM CST 5:59 PM CST
Astronomical Twilight 4:17 AM CST 6:24 PM CST
Moon 1:17 AM CST (11/9) 1:40 PM CST (11/9)
Length of Visible Light 12h 26m
Length of Day
11h 42m
Waning Crescent, 23% of the Moon is Illuminated
Nov 9
Waning Crescent
Nov 13
New
Nov 20
First Quarter
Nov 28
Full
Dec 6
Last Quarter

Hourly Weather History & Observations

Time (CST) Temp. Dew Point Humidity Pressure Visibility Wind Dir Wind Speed Gust Speed Precip Events Conditions
12:00 AM 70 °F 63 °F 71% 29.78 in 12 mi East 15.0 mph - -   Scattered Clouds
12:00 AM 69.8 °F 62.6 °F 78% 29.96 in 6.2 mi East 15.0 mph - N/A   Mostly Cloudy
1:00 AM 69.8 °F 62.6 °F 78% 29.93 in 6.2 mi East 9.2 mph 20.7 mph N/A   Light Drizzle
2:00 AM 69.8 °F 62.6 °F 78% 29.92 in 6.2 mi ENE 8.1 mph - N/A   Light Drizzle
3:00 AM 70 °F 62 °F 69% 29.76 in 12 mi ENE 13.8 mph - -   Scattered Clouds
3:00 AM 69.8 °F 62.6 °F 78% 29.92 in 6.2 mi ENE 13.8 mph - N/A   Mostly Cloudy
4:00 AM 69.8 °F 62.6 °F 78% 29.94 in 6.2 mi East 17.3 mph - N/A   Mostly Cloudy
5:00 AM 69.8 °F 62.6 °F 78% 29.95 in 6.2 mi East 13.8 mph - N/A   Scattered Clouds
6:00 AM 70 °F 61 °F 67% 29.83 in 12 mi East 11.5 mph - - Rain Light Drizzle
6:00 AM 69.8 °F 60.8 °F 73% 29.97 in 6.2 mi East 11.5 mph - N/A   Light Drizzle
7:00 AM 69.8 °F 62.6 °F 78% 29.99 in 6.2 mi ENE 10.4 mph - N/A Rain Rain
8:00 AM 71.6 °F 64.4 °F 78% 30.02 in 6.2 mi ENE 9.2 mph - N/A   Drizzle
9:00 AM 72 °F 64 °F 68% 29.86 in 6 mi SE 5.8 mph - - Rain Drizzle
9:00 AM 71.6 °F 64.4 °F 78% 30.02 in 6.2 mi SE 5.8 mph - N/A   Drizzle
10:00 AM 69.8 °F 62.6 °F 78% 30.02 in 6.2 mi NE 6.9 mph - N/A   Light Drizzle
11:00 AM 73.4 °F 64.4 °F 73% 29.99 in 6.2 mi ENE 6.9 mph - N/A   Light Drizzle
12:00 PM 75 °F 64 °F 59% 29.83 in 9 mi ESE 5.8 mph - -   Overcast
12:00 PM 75.2 °F 64.4 °F 69% 29.96 in 6.2 mi ESE 5.8 mph - N/A   Mostly Cloudy
1:00 PM 75.2 °F 62.6 °F 65% 29.93 in 6.2 mi ESE 10.4 mph - N/A   Mostly Cloudy
2:00 PM 75.2 °F 60.8 °F 61% 29.91 in 6.2 mi East 9.2 mph - N/A   Mostly Cloudy
3:00 PM 74 °F 62 °F 58% 29.77 in 9 mi SE 5.8 mph - -   Overcast
3:00 PM 75.2 °F 64.4 °F 69% 29.90 in 6.2 mi SE 5.8 mph - N/A Rain Light Rain
4:00 PM 75.2 °F 62.6 °F 65% 29.91 in 6.2 mi East 8.1 mph - N/A Rain Light Rain
5:00 PM 69.8 °F 62.6 °F 78% 29.93 in 6.2 mi East 6.9 mph - N/A Rain Light Rain
6:00 PM 69 °F 63 °F 77% 29.78 in 12 mi East 5.8 mph - - Rain Light Rain
6:00 PM 69.8 °F 62.6 °F 78% 29.95 in 6.2 mi East 5.8 mph - N/A Rain Light Rain
7:00 PM 69.8 °F 62.6 °F 78% 29.98 in 6.2 mi East 9.2 mph - N/A   Mostly Cloudy
8:00 PM 71.6 °F 60.8 °F 69% 30.00 in 6.2 mi East 9.2 mph - N/A   Scattered Clouds
9:00 PM 71 °F 61 °F 62% 29.85 in 12 mi East 9.2 mph - -   Scattered Clouds
9:00 PM 69.8 °F 60.8 °F 73% 30.00 in 6.2 mi East 9.2 mph - N/A   Scattered Clouds
10:00 PM 69.8 °F 60.8 °F 73% 29.99 in - East 11.5 mph - N/A   Clear
11:00 PM 69.8 °F 62.6 °F 78% 29.99 in - ENE 5.8 mph - N/A   Clear